Cape Girardeau, MO

7:55 AM CDT on July 27, 2017 (GMT -0500)
Cape Girardeau Regional

Weather History for KCGI - March, 2012

Change the Weather History Date:

Wednesday, March 7, 2012

  Actual Average Record
Temperature  
Mean Temperature 63 °F 44 °F  
Max Temperature 71 °F 55 °F 77 °F (2000)
Min Temperature 55 °F 34 °F 4 °F (1967)
Degree Days  
Heating Degree Days 2 21  
Month to date heating degree days 112 152  
Since 1 July heating degree days 3031 3649  
Cooling Degree Days 0 0  
Month to date cooling degree days 0 0  
Year to date cooling degree days 0 0  
Growing Degree Days 12 (Base 50)    
Moisture  
Dew Point 44 °F    
Average Humidity 50    
Maximum Humidity 63    
Minimum Humidity 36    
Precipitation  
Precipitation 0.00 in 0.13 in 1.88 in (1995)
Month to date precipitation 0.11 0.87  
Year to date precipitation 4.99 7.75  
Sea Level Pressure  
Sea Level Pressure 30.12 in    
Wind  
Wind Speed 18 mph (South)    
Max Wind Speed 32 mph    
Max Gust Speed 44 mph    
Visibility 10 miles    
Events      
T = Trace of Precipitation, MM = Missing Value Source: NWS Daily Summary

Daily Weather History Graph

Daily Weather History Graph

Search for Another Location

Airport or City:

Trip Planner

Search our weather history database for the weather conditions in past years. The results will help you decide how hot, cold, wet, or windy it might be!

Date:

Astronomy

Mar. 07, 2012 Rise Set
Actual Time 6:20 AM CST 5:58 PM CST
Civil Twilight 5:54 AM CST 6:24 PM CST
Nautical Twilight 5:24 AM CST 6:54 PM CST
Astronomical Twilight 4:53 AM CST 7:25 PM CST
Moon 5:34 PM CST (3/7) 5:30 AM CST (3/7)
Length of Visible Light 12h 30m
Length of Day
11h 38m
Waxing Gibbous, 99% of the Moon is Illuminated
Mar 7
Waxing Gibbous
Mar 8
Full
Mar 14
Last Quarter
Mar 22
New
Mar 30
First Quarter

Hourly Weather History & Observations

Time (CST) Temp. Dew Point Humidity Pressure Visibility Wind Dir Wind Speed Gust Speed Precip Events Conditions
12:53 AM 55.9 °F 30.0 °F 37% 30.16 in 10.0 mi South 17.3 mph - N/A   Clear
1:53 AM 55.9 °F 30.9 °F 39% 30.16 in 10.0 mi South 15.0 mph - N/A   Clear
2:53 AM 55.9 °F 32.0 °F 40% 30.16 in 10.0 mi South 18.4 mph 25.3 mph N/A   Clear
3:53 AM 55.9 °F 34.0 °F 44% 30.16 in 10.0 mi South 16.1 mph 26.5 mph N/A   Clear
4:53 AM 55.0 °F 35.1 °F 47% 30.17 in 10.0 mi South 16.1 mph - N/A   Clear
5:53 AM 55.0 °F 36.0 °F 49% 30.19 in 10.0 mi South 17.3 mph 24.2 mph N/A   Clear
6:53 AM 55.0 °F 36.0 °F 49% 30.19 in 10.0 mi South 16.1 mph 23.0 mph N/A   Partly Cloudy
7:53 AM 57.2 °F 37.4 °F 48% 30.19 in 10.0 mi South 18.4 mph 27.6 mph N/A   Clear
8:53 AM 59.0 °F 37.9 °F 46% 30.21 in 10.0 mi South 17.3 mph 25.3 mph N/A   Clear
9:53 AM 61.0 °F 42.1 °F 50% 30.20 in 10.0 mi South 23.0 mph 32.2 mph N/A   Mostly Cloudy
10:53 AM 64.0 °F 46.0 °F 52% 30.18 in 10.0 mi South 20.7 mph 35.7 mph N/A   Overcast
11:53 AM 64.9 °F 46.9 °F 52% 30.17 in 10.0 mi South 19.6 mph 29.9 mph N/A   Overcast
12:53 PM 66.9 °F 48.0 °F 51% 30.13 in 10.0 mi South 27.6 mph 39.1 mph N/A   Mostly Cloudy
1:53 PM 69.1 °F 48.0 °F 47% 30.09 in 10.0 mi South 21.9 mph 34.5 mph N/A   Mostly Cloudy
2:53 PM 69.1 °F 48.9 °F 49% 30.07 in 10.0 mi South 20.7 mph 35.7 mph N/A   Overcast
3:53 PM 70.0 °F 48.9 °F 47% 30.06 in 10.0 mi South 21.9 mph 32.2 mph N/A   Overcast
4:53 PM 69.1 °F 48.9 °F 49% 30.06 in 10.0 mi South 17.3 mph 28.8 mph N/A   Overcast
5:53 PM 68.0 °F 50.0 °F 52% 30.05 in 10.0 mi South 13.8 mph 19.6 mph N/A   Overcast
6:53 PM 66.0 °F 51.1 °F 59% 30.07 in 10.0 mi South 8.1 mph - N/A   Overcast
7:53 PM 66.0 °F 51.1 °F 59% 30.07 in 10.0 mi South 16.1 mph 21.9 mph N/A   Overcast
8:53 PM 66.9 °F 52.0 °F 59% 30.06 in 10.0 mi South 18.4 mph 25.3 mph N/A   Overcast
9:53 PM 66.0 °F 53.1 °F 63% 30.05 in 10.0 mi South 16.1 mph 26.5 mph N/A   Overcast
10:53 PM 66.0 °F 54.0 °F 65% 30.05 in 10.0 mi South 15.0 mph 24.2 mph N/A   Overcast
11:53 PM 66.0 °F 54.0 °F 65% 30.05 in 10.0 mi South 17.3 mph 24.2 mph N/A   Overcast